Franklin, PA

8:02 PM EST on November 17, 2019 (GMT -0500)
Venango Regional

Weather History for KFKL - September, 2019

Change the Weather History Date:

Monday, September 2, 2019

  Actual Average Record
Temperature  
Mean Temperature 68 °F -  
Max Temperature 73 °F 79 °F 100 °F (1932)
Min Temperature 59 °F 55 °F 37 °F (1935)
Cooling Degree Days 2    
Growing Degree Days 18 (Base 50)    
Moisture  
Dew Point 63 °F    
Average Humidity 90    
Maximum Humidity 100    
Minimum Humidity 68    
Precipitation  
Precipitation 0.14 in - - ()
Sea Level Pressure  
Sea Level Pressure 30.08 in    
Wind  
Wind Speed 7 mph (WSW)    
Max Wind Speed 10 mph    
Max Gust Speed -    
Visibility 9 miles    
Events Rain    
Averages and records for this station are not official NWS values.
T = Trace of Precipitation, MM = Missing Value Source: NWS Daily Summary

Daily Weather History Graph

Daily Weather History Graph

Search for Another Location

Airport or City:

Astronomy

Sep. 02, 2019 Rise Set
Actual Time 6:46 AM EDT 7:51 PM EDT
Civil Twilight 6:18 AM EDT 8:19 PM EDT
Nautical Twilight 5:44 AM EDT 8:53 PM EDT
Astronomical Twilight 5:08 AM EDT 9:28 PM EDT
Moon 10:29 AM EDT (9/2) 10:09 PM EDT (9/2)
Length of Visible Light 14h 01m
Length of Day
13h 04m
Waxing Crescent, 15% of the Moon is Illuminated
Sep 2
Waxing Crescent
Sep 5
First Quarter
Sep 14
Full
Sep 21
Last Quarter
Sep 28
New

Hourly Weather History & Observations

Time (EDT) Temp. Dew Point Humidity Pressure Visibility Wind Dir Wind Speed Gust Speed Precip Events Conditions
12:30 AM 64.4 °F 64.4 °F 100% 30.11 in 6.0 mi South 5.8 mph - 0.04 in Rain Rain
12:43 AM 64.4 °F 64.4 °F 100% 30.11 in 7.0 mi South 10.4 mph - 0.06 in Rain Rain
12:56 AM 64.0 °F 63.0 °F 96% 30.10 in 8.0 mi South 10.4 mph - 0.09 in Rain Rain
1:18 AM 64.4 °F 62.6 °F 94% 30.09 in 10.0 mi SSE 6.9 mph - 0.01 in Rain Light Rain
1:56 AM 63.0 °F 62.1 °F 97% 30.08 in 10.0 mi South 5.8 mph - 0.01 in Rain Light Rain
2:56 AM 63.0 °F 62.1 °F 97% 30.06 in 10.0 mi South 6.9 mph - 0.00 in   Overcast
3:56 AM 63.0 °F 62.1 °F 97% 30.05 in 10.0 mi SSW 6.9 mph - N/A   Overcast
4:56 AM 63.0 °F 63.0 °F 100% 30.05 in 10.0 mi SSW 5.8 mph - N/A   Overcast
5:56 AM 63.0 °F 62.1 °F 97% 30.06 in 10.0 mi SW 6.9 mph - N/A   Overcast
6:56 AM 63.0 °F 63.0 °F 100% 30.06 in 9.0 mi SW 6.9 mph - N/A   Overcast
7:56 AM 64.0 °F 63.0 °F 96% 30.06 in 8.0 mi SW 5.8 mph - N/A   Overcast
8:56 AM 64.0 °F 63.0 °F 96% 30.07 in 10.0 mi West 5.8 mph - N/A   Overcast
9:33 AM 66.2 °F 64.4 °F 94% 30.08 in 10.0 mi West 8.1 mph - N/A   Overcast
9:43 AM 66.2 °F 64.4 °F 94% 30.08 in 10.0 mi West 5.8 mph - N/A   Overcast
9:53 AM 66.2 °F 64.4 °F 94% 30.08 in 10.0 mi West 6.9 mph - N/A   Overcast
9:56 AM 66.9 °F 64.0 °F 90% 30.06 in 10.0 mi West 8.1 mph - N/A   Overcast
10:51 AM 66.2 °F 64.4 °F 94% 30.08 in 10.0 mi West 5.8 mph - N/A   Overcast
10:56 AM 68.0 °F 64.0 °F 87% 30.07 in 10.0 mi West 8.1 mph - N/A   Overcast
11:46 AM 66.2 °F 64.4 °F 94% 30.09 in 9.0 mi West 8.1 mph - 0.00 in Rain Light Rain
11:56 AM 66.0 °F 64.0 °F 93% 30.08 in 3.0 mi West 6.9 mph - 0.03 in Rain Rain
12:02 PM 64.4 °F 64.4 °F 100% 30.09 in 2.5 mi West 9.2 mph - 0.00 in Rain Light Rain
12:24 PM 64.4 °F 64.4 °F 100% 30.09 in 3.0 mi WNW 9.2 mph - 0.01 in Rain Light Rain
12:56 PM 66.0 °F 64.0 °F 93% 30.08 in 6.0 mi WNW 6.9 mph - 0.01 in   Overcast
1:24 PM 68.0 °F 64.4 °F 88% 30.09 in 7.0 mi Variable 5.8 mph - N/A   Overcast
1:56 PM 66.9 °F 64.0 °F 90% 30.08 in 10.0 mi Variable 4.6 mph - N/A   Overcast
2:11 PM 69.8 °F 64.4 °F 83% 30.09 in 10.0 mi WNW 6.9 mph - N/A   Overcast
2:30 PM 69.8 °F 62.6 °F 78% 30.08 in 10.0 mi WNW 8.1 mph - N/A   Overcast
2:56 PM 69.1 °F 63.0 °F 81% 30.07 in 10.0 mi West 8.1 mph - N/A   Overcast
3:09 PM 71.6 °F 64.4 °F 78% 30.07 in 10.0 mi Variable 6.9 mph - N/A   Overcast
3:56 PM 72.0 °F 63.0 °F 73% 30.05 in 10.0 mi NW 9.2 mph - N/A   Partly Cloudy
4:56 PM 73.0 °F 63.0 °F 71% 30.06 in 10.0 mi NW 9.2 mph - N/A   Scattered Clouds
5:56 PM 71.1 °F 60.1 °F 68% 30.06 in 10.0 mi NW 5.8 mph - N/A   Clear
6:56 PM 70.0 °F 62.1 °F 76% 30.06 in 10.0 mi Calm Calm - N/A   Clear
7:56 PM 66.0 °F 61.0 °F 84% 30.06 in 10.0 mi NW 3.5 mph - N/A   Clear
8:56 PM 64.9 °F 60.1 °F 84% 30.07 in 10.0 mi Variable 3.5 mph - N/A   Clear
9:56 PM 63.0 °F 59.0 °F 87% 30.09 in 10.0 mi Calm Calm - N/A   Clear
10:56 PM 62.1 °F 59.0 °F 90% 30.10 in 10.0 mi Calm Calm - N/A   Overcast
11:56 PM 59.0 °F 57.9 °F 96% 30.10 in 9.0 mi Calm Calm - N/A   Clear